This is the latest recevied weather packets stored in our database for station/object K3CHZ. If no packets are shown the sender has not sent any weather packets the latest 10 day(s).
| Time | Temp. | Humidity | Pressure | Rain* | Wind** | Luminosity | Snow |
|---|---|---|---|---|---|---|---|
| 1778080937 | 15.56° C | 93% | 1009.4 hPa | 7.62 mm | - | - | - |
| 1778080637 | 15.56° C | 93% | 1009.4 hPa | 7.62 mm | - | - | - |
| 1778080339 | 15.56° C | 93% | 1009.4 hPa | 10.16 mm | - | - | - |
| 1778080037 | 15.56° C | 93% | 1009.5 hPa | 10.16 mm | - | - | - |
| 1778079737 | 15.56° C | 93% | 1009.8 hPa | 10.16 mm | - | - | - |
| 1778079437 | 15.56° C | 93% | 1009.8 hPa | 12.7 mm | - | - | - |
| 1778079138 | 15.56° C | 93% | 1009.9 hPa | 12.7 mm | - | - | - |
| 1778078840 | 15.56° C | 93% | 1010 hPa | 10.16 mm | - | - | - |
| 1778078539 | 15.56° C | 93% | 1010 hPa | 10.16 mm | - | - | - |
| 1778078238 | 15.56° C | 93% | 1009.8 hPa | 10.16 mm | - | - | - |
| 1778077937 | 15.56° C | 93% | 1010 hPa | 12.7 mm | - | - | - |
| 1778077637 | 15.56° C | 93% | 1009.8 hPa | 15.24 mm | - | - | - |
| 1778077337 | 15.56° C | 92% | 1009.7 hPa | 12.7 mm | - | - | - |
| 1778077037 | 15.56° C | 92% | 1009.8 hPa | 12.7 mm | - | - | - |
| 1778076737 | 15.56° C | 92% | 1009.6 hPa | 12.7 mm | - | - | - |
| 1778076438 | 15.56° C | 92% | 1009.6 hPa | 12.7 mm | - | - | - |
| 1778076140 | 15.56° C | 92% | 1009.6 hPa | 15.24 mm | - | - | - |
| 1778075837 | 15.56° C | 92% | 1009.7 hPa | 15.24 mm | - | - | - |
| 1778075537 | 15.56° C | 92% | 1009.8 hPa | 15.24 mm | - | - | - |
| 1778075237 | 15.56° C | 92% | 1009.8 hPa | 15.24 mm | - | - | - |
| 1778074938 | 15.56° C | 92% | 1010 hPa | 15.24 mm | - | - | - |
| 1778074638 | 15.56° C | 92% | 1010.2 hPa | 15.24 mm | - | - | - |
| 1778074338 | 15.56° C | 91% | 1010.4 hPa | 15.24 mm | - | - | - |
| 1778074035 | 15.56° C | 91% | 1010.5 hPa | 12.7 mm | - | - | - |
| 1778073734 | 15.56° C | 91% | 1010.4 hPa | 15.24 mm | - | - | - |
* Rain latest hour (hover to see other rain measurements)
** Current wind speed in m/s (hover to see current wind gust speed)